Romeoville, IL

8:28 PM CDT on March 30, 2017 (GMT -0500)
Lewis University

Weather History for KLOT - April, 2013

Change the Weather History Date:

Friday, April 19, 2013

  Actual Average Record
Temperature  
Mean Temperature 36 °F 52 °F  
Max Temperature 39 °F 62 °F 81 °F (2005)
Min Temperature 33 °F 41 °F 33 °F (2011)
Degree Days  
Heating Degree Days 29 14  
Month to date heating degree days 370 322  
Since 1 July heating degree days 5830 5867  
Cooling Degree Days 0 0  
Month to date cooling degree days 0 0  
Year to date cooling degree days 0 0  
Moisture  
Dew Point 30 °F    
Average Humidity 77    
Maximum Humidity 84    
Minimum Humidity 73    
Precipitation  
Precipitation T in 0.14 in 1.05 in (1993)
Month to date precipitation 7.09 2.34  
Year to date precipitation 15.17 8.82  
Snow  
Snow T in 0.00 in T in (2013)
Month to date snowfall T 0.5  
Since 1 July snowfall 23.2 32.3  
Snow Depth 0.00 in    
Sea Level Pressure  
Sea Level Pressure 29.67 in    
Wind  
Wind Speed 23 mph (West)    
Max Wind Speed 32 mph    
Max Gust Speed 39 mph    
Visibility 10 miles    
Events Rain , Snow    
T = Trace of Precipitation, MM = Missing Value Source: NWS Daily Summary

Daily Weather History Graph

Daily Weather History Graph

Search for Another Location

Airport or City:

Trip Planner

Search our weather history database for the weather conditions in past years. The results will help you decide how hot, cold, wet, or windy it might be!

Date:

Astronomy

Apr. 19, 2013 Rise Set
Actual Time 6:05 AM CDT 7:37 PM CDT
Civil Twilight 5:36 AM CDT 8:06 PM CDT
Nautical Twilight 5:01 AM CDT 8:42 PM CDT
Astronomical Twilight 4:24 AM CDT 9:19 PM CDT
Moon 1:17 PM CDT (4/19) 2:26 AM CDT (4/19)
Length of Visible Light 14h 30m
Length of Day
13h 31m
First Quarter, 62% of the Moon is Illuminated
Apr 19
First Quarter
Apr 25
Full
May 2
Last Quarter
May 9
New
May 17
First Quarter

Hourly Weather History & Observations

Time (CDT) Temp. Windchill Dew Point Humidity Pressure Visibility Wind Dir Wind Speed Gust Speed Precip Events Conditions
12:15 AM 39.6 °F 28.5 °F 32.7 °F 76% 29.55 in 10.0 mi West 26.5 mph 33.4 mph N/A   Overcast
12:35 AM 38.3 °F 27.3 °F 32.0 °F 78% 29.56 in 10.0 mi West 24.2 mph 38.0 mph N/A   Overcast
12:55 AM 38.3 °F 28.1 °F 31.8 °F 77% 29.56 in 10.0 mi West 20.7 mph 31.1 mph N/A   Overcast
1:15 AM 38.3 °F 27.1 °F 32.0 °F 78% 29.55 in 10.0 mi West 25.3 mph 35.7 mph N/A   Overcast
1:35 AM 37.9 °F 25.9 °F 30.9 °F 76% 29.54 in 10.0 mi West 28.8 mph 34.5 mph N/A   Overcast
1:55 AM 37.8 °F 26.6 °F 31.5 °F 78% 29.54 in 10.0 mi West 24.2 mph 36.8 mph N/A   Overcast
2:15 AM 37.8 °F 26.3 °F 30.9 °F 76% 29.54 in 10.0 mi West 25.3 mph 34.5 mph N/A   Overcast
2:35 AM 37.6 °F 27.1 °F 31.6 °F 79% 29.54 in 10.0 mi West 20.7 mph 28.8 mph N/A   Overcast
2:55 AM 37.6 °F 27.4 °F 30.2 °F 75% 29.54 in 10.0 mi West 19.6 mph 27.6 mph N/A   Overcast
3:15 AM 37.4 °F 27.8 °F 30.4 °F 76% 29.54 in 10.0 mi West 17.3 mph 25.3 mph N/A   Overcast
3:35 AM 37.4 °F 26.6 °F 30.2 °F 75% 29.52 in 10.0 mi WSW 21.9 mph 28.8 mph N/A   Overcast
3:55 AM 37.0 °F 25.1 °F 30.4 °F 77% 29.53 in 10.0 mi West 26.5 mph 35.7 mph N/A   Overcast
4:15 AM 36.5 °F 25.2 °F 30.6 °F 79% 29.53 in 10.0 mi West 23.0 mph 29.9 mph N/A   Overcast
4:35 AM 36.7 °F 24.7 °F 30.6 °F 78% 29.53 in 10.0 mi West 26.5 mph 31.1 mph N/A   Overcast
4:55 AM 36.7 °F 25.4 °F 30.0 °F 77% 29.53 in 10.0 mi West 23.0 mph 31.1 mph N/A   Overcast
5:15 AM 36.5 °F 26.0 °F 30.7 °F 80% 29.54 in 10.0 mi West 19.6 mph 27.6 mph N/A   Overcast
5:35 AM 36.5 °F 26.3 °F 31.1 °F 81% 29.54 in 10.0 mi West 18.4 mph 21.9 mph N/A   Overcast
5:55 AM 36.5 °F 26.0 °F 30.9 °F 80% 29.54 in 10.0 mi WSW 19.6 mph 28.8 mph N/A   Overcast
6:15 AM 36.3 °F 24.9 °F 30.2 °F 78% 29.54 in 10.0 mi WSW 23.0 mph 32.2 mph N/A   Overcast
6:35 AM 36.1 °F 25.0 °F 30.2 °F 79% 29.55 in 10.0 mi West 21.9 mph 28.8 mph N/A   Overcast
6:55 AM 36.1 °F 25.0 °F 30.0 °F 78% 29.55 in 10.0 mi West 21.9 mph 29.9 mph N/A   Overcast
7:15 AM 36.1 °F 24.4 °F 30.0 °F 78% 29.55 in 10.0 mi West 24.2 mph 28.8 mph N/A   Overcast
7:35 AM 36.1 °F 24.2 °F 29.1 °F 76% 29.56 in 10.0 mi West 25.3 mph 32.2 mph N/A   Overcast
7:55 AM 36.0 °F 24.4 °F 29.5 °F 77% 29.56 in 10.0 mi West 23.0 mph 35.7 mph N/A   Overcast
8:15 AM 36.5 °F 24.7 °F 30.2 °F 78% 29.56 in 10.0 mi West 25.3 mph 35.7 mph N/A   Overcast
8:35 AM 37.4 °F 25.9 °F 30.2 °F 75% 29.57 in 10.0 mi West 25.3 mph 32.2 mph N/A   Overcast
8:55 AM 36.9 °F 25.4 °F 30.0 °F 76% 29.57 in 10.0 mi WSW 24.2 mph 39.1 mph N/A   Overcast
9:15 AM 37.4 °F 26.6 °F 29.5 °F 73% 29.58 in 10.0 mi West 21.9 mph 36.8 mph N/A   Overcast
9:35 AM 37.4 °F 26.1 °F 30.0 °F 75% 29.58 in 10.0 mi West 24.2 mph 33.4 mph N/A   Overcast
9:55 AM 37.4 °F 25.2 °F 29.7 °F 74% 29.58 in 10.0 mi West 28.8 mph 35.7 mph N/A   Overcast
10:15 AM 37.0 °F 24.9 °F 29.8 °F 75% 29.59 in 10.0 mi West 27.6 mph 36.8 mph N/A   Overcast
10:35 AM 36.5 °F 26.0 °F 30.7 °F 80% 29.60 in 10.0 mi WSW 19.6 mph 36.8 mph N/A Rain Rain
10:55 AM 36.0 °F 24.7 °F 31.1 °F 82% 29.60 in 10.0 mi WSW 21.9 mph 31.1 mph N/A Rain Light Rain
11:15 AM 36.7 °F 24.7 °F 30.2 °F 77% 29.60 in 10.0 mi West 26.5 mph 36.8 mph N/A   Overcast
11:35 AM 36.5 °F 24.4 °F 30.7 °F 80% 29.61 in 10.0 mi West 26.5 mph 34.5 mph N/A Rain Rain
11:55 AM 35.8 °F 24.2 °F 30.9 °F 82% 29.62 in 7.0 mi West 23.0 mph 36.8 mph N/A Rain Rain
12:15 PM 36.7 °F 23.6 °F 30.0 °F 77% 29.62 in 10.0 mi West 32.2 mph 39.1 mph N/A   Overcast
12:35 PM 36.5 °F 24.4 °F 30.7 °F 80% 29.63 in 10.0 mi West 26.5 mph 36.8 mph N/A   Overcast
12:55 PM 37.0 °F 25.4 °F 30.6 °F 77% 29.63 in 10.0 mi West 25.3 mph 34.5 mph N/A   Overcast
1:15 PM 36.9 °F 24.4 °F 29.7 °F 75% 29.64 in 10.0 mi West 28.8 mph 36.8 mph N/A   Overcast
1:35 PM 36.7 °F 25.4 °F 29.1 °F 74% 29.66 in 10.0 mi West 23.0 mph 34.5 mph N/A   Overcast
1:55 PM 36.3 °F 24.4 °F 30.2 °F 78% 29.67 in 7.0 mi West 25.3 mph 35.7 mph N/A   Drizzle
2:15 PM 36.3 °F 24.9 °F 30.4 °F 79% 29.68 in 10.0 mi West 23.0 mph 38.0 mph N/A   Overcast
2:35 PM 37.0 °F 24.7 °F 30.7 °F 78% 29.68 in 10.0 mi West 28.8 mph 34.5 mph N/A   Overcast
2:55 PM 37.4 °F 25.4 °F 29.8 °F 74% 29.69 in 10.0 mi West 27.6 mph 33.4 mph N/A   Overcast
3:15 PM 36.5 °F 23.7 °F 30.0 °F 77% 29.69 in 10.0 mi West 29.9 mph 36.8 mph N/A   Light Drizzle
3:35 PM 36.7 °F 24.4 °F 30.2 °F 77% 29.69 in 10.0 mi West 27.6 mph 34.5 mph N/A   Overcast
3:55 PM 37.4 °F 25.9 °F 30.4 °F 76% 29.70 in 10.0 mi WSW 25.3 mph 31.1 mph N/A   Overcast
4:15 PM 37.4 °F 26.1 °F 30.4 °F 76% 29.72 in 10.0 mi West 24.2 mph 33.4 mph N/A   Overcast
4:35 PM 37.4 °F 25.0 °F 29.5 °F 73% 29.72 in 10.0 mi West 29.9 mph 35.7 mph N/A   Overcast
4:55 PM 37.2 °F 26.4 °F 29.5 °F 74% 29.74 in 10.0 mi West 21.9 mph 33.4 mph N/A   Overcast
5:15 PM 37.4 °F 25.9 °F 29.7 °F 74% 29.74 in 10.0 mi West 25.3 mph 34.5 mph N/A   Overcast
5:35 PM 37.0 °F 24.9 °F 29.5 °F 74% 29.75 in 10.0 mi West 27.6 mph 33.4 mph N/A   Light Drizzle
5:55 PM 37.4 °F 26.6 °F 29.7 °F 74% 29.76 in 10.0 mi West 21.9 mph 32.2 mph N/A   Overcast
6:15 PM 36.9 °F 25.9 °F 30.0 °F 76% 29.77 in 10.0 mi West 21.9 mph 29.9 mph N/A   Light Drizzle
6:35 PM 37.0 °F 26.4 °F 30.2 °F 76% 29.78 in 10.0 mi West 20.7 mph 29.9 mph N/A   Overcast
6:55 PM 36.7 °F 25.1 °F 30.2 °F 77% 29.79 in 10.0 mi West 24.2 mph 33.4 mph N/A   Light Drizzle
7:15 PM 36.5 °F 26.0 °F 30.4 °F 78% 29.80 in 10.0 mi West 19.6 mph 27.6 mph N/A   Overcast
7:35 PM 37.4 °F 27.5 °F 30.2 °F 75% 29.81 in 10.0 mi West 18.4 mph 27.6 mph N/A   Overcast
7:55 PM 36.7 °F 27.6 °F 30.2 °F 77% 29.83 in 10.0 mi West 15.0 mph 25.3 mph N/A   Overcast
8:15 PM 36.5 °F 26.3 °F 29.3 °F 75% 29.84 in 10.0 mi WNW 18.4 mph 31.1 mph N/A   Overcast
8:35 PM 35.6 °F 26.2 °F 30.2 °F 81% 29.85 in 10.0 mi WNW 15.0 mph 19.6 mph N/A Rain Light Rain
8:55 PM 36.5 °F 27.0 °F 29.1 °F 75% 29.87 in 10.0 mi WNW 16.1 mph 24.2 mph N/A   Overcast
9:15 PM 36.0 °F 24.4 °F 29.7 °F 78% 29.87 in 10.0 mi WNW 23.0 mph 26.5 mph N/A Rain Light Rain
9:35 PM 35.2 °F 26.2 °F 30.4 °F 82% 29.89 in 10.0 mi West 13.8 mph 21.9 mph N/A Snow Light Snow
9:55 PM 35.1 °F 24.8 °F 30.6 °F 84% 29.89 in 10.0 mi West 17.3 mph - N/A   Overcast
10:15 PM 35.1 °F 25.2 °F 29.8 °F 81% 29.90 in 10.0 mi West 16.1 mph 21.9 mph N/A   Overcast
10:35 PM 34.7 °F 24.7 °F 29.8 °F 82% 29.91 in 10.0 mi West 16.1 mph 23.0 mph N/A   Mostly Cloudy
10:55 PM 34.7 °F 24.7 °F 29.1 °F 80% 29.91 in 10.0 mi West 16.1 mph 20.7 mph N/A   Mostly Cloudy
11:15 PM 34.7 °F 24.7 °F 29.1 °F 80% 29.91 in 10.0 mi West 16.1 mph - N/A   Overcast
11:35 PM 34.7 °F 24.7 °F 28.8 °F 79% 29.92 in 10.0 mi West 16.1 mph 19.6 mph N/A   Overcast
11:55 PM 34.5 °F 23.8 °F 28.8 °F 79% 29.93 in 10.0 mi West 18.4 mph - N/A   Overcast